Grand Junction, CO

9:19 PM MDT on September 20, 2019 (GMT -0600)
Walker

Weather History for KGJT - August, 2019

Change the Weather History Date:

Sunday, August 25, 2019

  Actual Average Record
Temperature  
Mean Temperature 81 °F 74 °F  
Max Temperature 99 °F 88 °F 99 °F (1969)
Min Temperature 62 °F 60 °F 48 °F (1975)
Degree Days  
Heating Degree Days 0 0  
Month to date heating degree days 0 0  
Since 1 June heating degree days 25 23  
Since 1 July heating degree days 0 1  
Cooling Degree Days 16 9  
Month to date cooling degree days 363 279  
Year to date cooling degree days 1048 971  
Since 1 June cooling degree days 1036 920  
Growing Degree Days 30 (Base 50)    
Moisture  
Dew Point 36 °F    
Average Humidity 24    
Maximum Humidity 36    
Minimum Humidity 11    
Precipitation  
Precipitation 0.00 in 0.03 in 0.75 in (1961)
Month to date precipitation 0.14 0.75  
Year to date precipitation 6.86 5.65  
Snow  
Snow 0.00 in 0.00 in 0.00 in (2002)
Month to date snowfall 0.0 0.0  
Since 1 June snowfall 0.0 0.0  
Since 1 July snowfall 0.0 0.0  
Snow Depth 0.00 in    
Sea Level Pressure  
Sea Level Pressure 29.78 in    
Wind  
Wind Speed 7 mph (SE)    
Max Wind Speed 24 mph    
Max Gust Speed 32 mph    
Visibility 10 miles    
Events      
T = Trace of Precipitation, MM = Missing Value Source: NWS Daily Summary

Daily Weather History Graph

Daily Weather History Graph

Search for Another Location

Airport or City:

Astronomy

Aug. 25, 2019 Rise Set
Actual Time 6:36 AM MDT 7:55 PM MDT
Civil Twilight 6:08 AM MDT 8:23 PM MDT
Nautical Twilight 5:35 AM MDT 8:56 PM MDT
Astronomical Twilight 5:00 AM MDT 9:31 PM MDT
Moon 1:14 AM MDT (8/25) 4:18 PM MDT (8/25)
Length of Visible Light 14h 14m
Length of Day
13h 19m
Waning Crescent, 28% of the Moon is Illuminated
Aug 25
Waning Crescent
Aug 30
New
Sep 5
First Quarter
Sep 13
Full
Sep 21
Last Quarter

Hourly Weather History & Observations

Time (MDT) Temp. Dew Point Humidity Pressure Visibility Wind Dir Wind Speed Gust Speed Precip Events Conditions
12:53 AM 70.0 °F 30.0 °F 23% 29.79 in 10.0 mi ENE 8.1 mph - N/A   Clear
1:53 AM 72.0 °F 34.0 °F 25% 29.78 in 10.0 mi East 11.5 mph - N/A   Clear
2:53 AM 71.1 °F 35.1 °F 27% 29.78 in 10.0 mi ESE 11.5 mph - N/A   Clear
3:53 AM 66.9 °F 36.0 °F 32% 29.79 in 10.0 mi ESE 9.2 mph - N/A   Clear
4:53 AM 64.0 °F 35.1 °F 34% 29.82 in 10.0 mi ENE 6.9 mph - N/A   Clear
5:53 AM 64.9 °F 35.1 °F 33% 29.81 in 10.0 mi ESE 9.2 mph - N/A   Clear
6:53 AM 62.1 °F 35.1 °F 37% 29.84 in 10.0 mi East 4.6 mph - N/A   Clear
7:53 AM 69.1 °F 37.0 °F 31% 29.85 in 10.0 mi ESE 6.9 mph - N/A   Clear
8:53 AM 71.1 °F 39.0 °F 31% 29.87 in 10.0 mi SSE 5.8 mph - N/A   Clear
9:53 AM 78.1 °F 39.9 °F 25% 29.87 in 10.0 mi Calm Calm - N/A   Clear
10:53 AM 82.0 °F 37.9 °F 21% 29.86 in 10.0 mi ESE 4.6 mph - N/A   Clear
11:53 AM 86.0 °F 37.9 °F 18% 29.83 in 10.0 mi Variable 3.5 mph - N/A   Clear
12:53 PM 91.0 °F 39.0 °F 16% 29.80 in 10.0 mi Variable 3.5 mph - N/A   Clear
1:53 PM 93.0 °F 37.9 °F 15% 29.77 in 10.0 mi West 4.6 mph - N/A   Clear
2:53 PM 96.1 °F 37.9 °F 13% 29.73 in 10.0 mi West 9.2 mph - N/A   Clear
3:53 PM 98.1 °F 39.0 °F 13% 29.70 in 10.0 mi West 9.2 mph - N/A   Clear
5:53 PM 97.0 °F 36.0 °F 12% 29.68 in 10.0 mi West 15.0 mph 27.6 mph N/A   Clear
7:53 PM 91.0 °F 36.0 °F 14% 29.68 in 10.0 mi WSW 12.7 mph - N/A   Clear
8:53 PM 82.0 °F 35.1 °F 18% 29.71 in 10.0 mi SW 3.5 mph - N/A   Clear
9:53 PM 80.1 °F 34.0 °F 19% 29.72 in 10.0 mi NNW 3.5 mph - N/A   Clear
10:53 PM 75.0 °F 36.0 °F 24% 29.73 in 10.0 mi West 3.5 mph - N/A   Clear
11:53 PM 69.1 °F 30.9 °F 24% 29.74 in 10.0 mi East 3.5 mph - N/A   Clear